Terminal Aerodrome Forecast
Issued by NWS Grand Forks, ND

Home | Current Version | Previous Version | Text Only | Print | Product List | Glossary Off
Versions: 1 2 3 4 5 6 7 8 9 10 11 12 13 14

000
FTUS43 KFGF 201126
TAFFAR
TAF
KFAR 201126Z 2012/2112 29008KT P6SM BKN250
     FM210100 31004KT P6SM FEW130 FEW250=

USA.gov is the U.S. government's official web portal to all federal, state and local government web resources and services.